Dewpoint
54 49 45 37 25 20 14 15 18 14 13 15 22 23 20 20 31 22 63 66 68 69 71 71 72 72 73 73 72 72 73 73 73 73 73 73 73 73 73 73 73 74 74 73 72 71 71 71 72
45 45 38 30 18 16 11 18 16 13 17 19 18 18 20 22 54 61 63 67 68 69 71 71 72 72 72 72 72 72 73 73 73 73 73 73 73 73 73 73 73 73 74 72 72 72 72 72 71
42 39 33 30 22 15 9 14 16 17 18 18 16 19 23 25 57 61 64 67 68 69 70 71 71 71 72 72 72 72 73 72 72 73 73 73 73 73 73 73 73 74 73 73 71 71 71 71 70
38 37 33 26 21 21 16 16 18 21 21 19 17 17 21 46 60 61 67 68 68 69 70 70 70 71 72 72 72 72 72 72 72 72 73 73 73 73 73 72 72 73 73 72 72 72 70 70 69
29 33 28 26 26 25 22 23 24 23 23 21 21 20 21 41 59 65 66 67 67 68 69 70 70 71 71 72 72 72 71 71 71 72 72 73 73 73 72 71 72 72 72 71 70 70 70 69 69
25 29 26 23 21 23 24 25 24 25 24 22 18 19 20 52 63 64 65 65 67 68 69 69 70 71 71 71 71 71 71 71 71 71 72 72 72 72 71 71 71 70 70 69 69 69 69 69 69
20 27 24 26 25 25 25 26 24 24 25 19 23 21 24 53 61 64 63 63 66 67 68 69 70 70 70 69 69 69 70 70 70 71 71 71 71 70 71 71 70 70 69 69 69 68 68 68 68
35 30 29 27 25 25 28 29 27 27 20 26 25 20 25 40 59 66 66 66 65 66 66 67 69 69 69 69 68 69 69 70 70 70 70 70 70 70 70 70 70 69 68 68 68 68 67 67 66
34 32 30 28 28 29 32 31 31 29 23 23 24 24 34 55 63 65 65 65 64 65 65 67 67 68 68 68 69 69 70 70 69 70 69 68 68 68 68 68 68 68 67 67 68 67 67 66 66
26 29 28 32 31 31 32 31 30 27 28 27 24 27 25 45 52 62 64 64 64 64 65 66 66 66 66 68 67 67 69 69 68 68 67 67 66 66 66 66 67 67 66 67 66 66 64 65 65
23 27 27 27 28 26 24 24 25 24 23 26 24 26 26 21 43 53 57 64 64 65 65 65 65 66 66 67 67 68 68 66 66 66 66 65 66 67 64 65 64 63 65 64 65 64 64 64 65
23 23 22 22 22 21 21 22 20 20 21 24 23 25 22 22 25 32 49 53 63 65 65 65 65 65 66 66 66 66 66 67 65 65 64 66 66 65 64 64 64 62 64 63 64 64 64 64 64
21 21 23 25 25 24 23 20 19 19 20 20 20 19 19 23 23 23 30 43 55 62 66 66 65 65 66 65 66 66 66 66 65 64 66 66 65 64 64 64 63 63 63 63 62 63 64 63 64
17 16 17 18 18 17 19 19 19 19 18 18 18 19 19 21 22 22 23 26 41 53 64 66 66 66 66 66 65 65 65 65 65 64 66 65 64 63 63 62 62 61 62 63 61 62 62 63 63
26 23 24 23 21 18 18 16 15 16 16 15 15 15 16 18 20 21 22 23 26 43 61 66 67 67 67 66 66 65 65 65 65 64 66 64 64 62 62 61 62 61 62 63 61 61 61 63 63
21 23 21 22 21 20 17 15 17 19 16 16 17 16 16 17 17 17 20 22 23 33 57 66 66 67 67 66 66 66 66 65 65 64 65 65 64 62 62 61 62 62 62 63 62 61 62 62 62
20 19 20 20 21 19 17 17 18 18 17 16 16 16 17 17 18 19 21 20 22 25 43 63 66 66 67 66 66 65 65 65 65 65 65 65 64 63 62 61 61 62 62 62 62 62 61 60 61
17 17 21 19 18 18 16 16 18 16 16 17 16 16 17 17 17 18 19 21 23 23 29 57 65 66 66 65 64 64 63 63 65 64 64 65 64 64 63 62 61 62 61 62 62 61 61 60 60
19 19 17 17 18 17 17 16 16 16 16 16 17 18 19 22 33 38 25 21 24 26 28 51 64 65 66 65 64 64 63 63 63 64 64 64 64 64 63 62 62 61 61 61 61 61 60 59 61
17 16 16 17 18 18 16 16 18 17 17 17 19 27 42 43 43 45 46 39 24 26 36 49 62 65 65 65 64 63 64 64 63 63 63 64 63 62 63 62 61 62 62 61 61 60 59 59 60
19 17 17 18 19 20 17 16 17 20 26 41 43 44 44 43 42 43 45 47 48 42 41 56 61 64 64 64 62 60 61 61 61 62 62 62 62 61 62 61 62 62 61 61 60 60 59 58 60
19 21 21 21 19 17 18 16 18 20 39 41 41 42 43 43 43 43 44 46 47 47 50 56 61 63 64 64 61 60 60 60 61 62 62 61 60 61 61 61 62 62 61 60 60 60 59 58 58
21 24 22 23 20 22 20 18 16 33 36 38 37 40 42 43 42 42 43 44 46 48 50 57 62 63 64 62 61 60 59 59 59 59 60 59 60 61 61 62 62 61 61 60 60 60 60 59 58
22 24 24 24 23 19 16 19 18 34 37 38 39 43 43 42 41 41 42 43 43 47 51 59 62 62 62 62 61 60 58 57 58 58 58 58 59 60 61 61 61 61 60 61 60 60 60 59 59
19 19 17 16 18 17 20 20 21 37 38 39 40 43 41 41 40 39 39 41 42 44 48 56 62 62 61 61 60 59 58 58 57 58 58 57 58 58 59 61 61 61 61 60 60 60 59 59 59
20 20 19 15 18 13 20 19 23 39 40 42 44 41 40 39 38 38 38 39 41 43 46 52 62 61 61 61 60 59 58 58 58 58 58 58 57 58 59 59 60 61 61 60 60 60 60 60 59
23 21 22 21 21 20 20 24 36 39 38 41 41 39 37 37 37 36 37 38 40 42 44 48 60 60 61 60 59 59 58 58 57 57 58 58 58 58 58 60 60 60 60 60 60 60 60 60 59
20 26 22 26 22 18 19 21 24 33 35 39 38 36 35 35 34 34 35 37 40 41 43 46 52 60 59 59 59 59 58 58 57 57 57 57 56 57 58 57 58 58 58 59 59 59 59 59 59
16 20 27 30 27 22 19 20 34 34 37 37 35 35 34 33 33 33 34 35 38 40 41 44 47 58 59 59 59 58 57 57 57 57 56 56 57 57 57 57 57 56 57 57 58 58 58 58 58
20 30 30 26 24 25 27 24 37 37 36 35 34 33 33 32 32 32 33 34 35 38 40 41 43 48 55 59 59 58 58 58 58 57 57 57 56 56 56 57 57 57 57 57 57 57 57 57 57
Lifted_Index
11 11 11 9 7 4 3 2 3 4 5 6 6 6 5 4 3 1 -1 -2 -2 -3 -3 -4 -4 -4 -4 -5 -5 -4 -4 -4 -4 -4 -4 -4 -4 -5 -5 -5 -5 -5 -5 -5 -5 -4 -4 -4 -4
12 11 10 9 6 4 2 3 4 5 6 7 7 6 5 4 1 -1 -2 -2 -2 -3 -4 -4 -4 -4 -4 -5 -5 -5 -5 -4 -4 -4 -4 -4 -4 -5 -5 -5 -5 -5 -5 -5 -5 -4 -4 -4 -4
12 11 10 8 5 3 3 3 4 6 7 8 7 7 6 4 0 -2 -2 -2 -3 -3 -4 -4 -4 -4 -4 -5 -5 -5 -5 -5 -4 -4 -4 -5 -5 -5 -5 -5 -5 -5 -5 -5 -5 -4 -4 -4 -4
12 11 9 7 4 4 4 4 5 6 7 8 8 8 7 4 0 -2 -2 -2 -2 -3 -4 -4 -4 -4 -4 -5 -5 -5 -5 -5 -5 -5 -5 -5 -5 -5 -5 -5 -5 -5 -5 -5 -5 -4 -4 -4 -4
11 10 8 5 4 5 5 5 6 6 6 7 7 8 7 3 -0 -2 -2 -2 -2 -3 -4 -4 -4 -4 -4 -4 -5 -5 -5 -5 -5 -5 -5 -5 -5 -5 -4 -4 -5 -5 -5 -5 -4 -4 -3 -3 -4
10 9 7 5 5 6 6 7 7 7 6 6 7 7 6 3 -1 -2 -2 -2 -2 -3 -3 -4 -4 -4 -4 -4 -4 -4 -5 -5 -5 -5 -5 -5 -5 -5 -4 -4 -4 -4 -4 -4 -4 -3 -3 -3 -4
10 9 6 5 6 6 7 7 7 7 7 6 6 7 6 2 -1 -2 -2 -2 -2 -2 -3 -4 -4 -4 -4 -4 -4 -4 -4 -5 -5 -5 -5 -5 -4 -4 -4 -4 -4 -4 -3 -3 -3 -3 -3 -3 -3
10 9 6 6 6 6 7 8 8 7 7 6 6 6 5 2 -1 -2 -2 -2 -2 -2 -2 -3 -3 -4 -4 -4 -4 -4 -4 -4 -5 -5 -5 -4 -4 -4 -4 -4 -4 -3 -3 -3 -3 -3 -3 -2 -2
10 8 6 6 7 7 8 8 8 8 7 6 6 6 5 2 -2 -3 -3 -2 -2 -2 -2 -2 -3 -3 -4 -4 -4 -4 -4 -5 -5 -5 -5 -4 -4 -4 -4 -3 -3 -3 -3 -3 -3 -2 -2 -1 -1
10 8 7 8 9 9 9 8 8 8 8 7 6 6 6 3 -0 -3 -4 -3 -3 -2 -2 -2 -2 -3 -3 -3 -4 -4 -4 -5 -5 -5 -5 -4 -4 -4 -4 -3 -3 -3 -3 -3 -2 -2 -1 -1 -0
10 9 9 10 10 10 10 9 9 8 8 7 6 6 6 6 3 -0 -2 -4 -4 -4 -3 -3 -2 -2 -3 -3 -3 -4 -4 -4 -5 -5 -4 -4 -4 -4 -3 -3 -3 -3 -3 -2 -2 -1 -1 -1 -0
10 11 11 11 11 11 11 10 10 9 9 8 7 7 7 7 6 4 1 -2 -4 -5 -5 -4 -4 -3 -3 -3 -3 -3 -4 -4 -4 -4 -4 -4 -3 -3 -3 -3 -3 -3 -3 -2 -1 -1 -1 -0 -0
11 11 11 11 11 11 10 10 10 10 9 8 8 7 7 7 6 6 5 2 -1 -4 -5 -5 -5 -4 -4 -3 -3 -3 -3 -3 -4 -4 -4 -4 -3 -2 -2 -3 -3 -3 -3 -2 -1 -1 -1 -0 -0
11 11 11 10 10 10 10 10 10 10 9 9 8 7 7 6 6 6 6 5 3 -1 -5 -6 -6 -6 -5 -4 -3 -3 -3 -3 -4 -4 -4 -3 -2 -2 -2 -3 -3 -3 -2 -1 -1 -1 -0 -0 -0
10 10 9 9 9 9 9 9 9 9 9 9 8 8 7 6 6 6 5 5 4 2 -3 -7 -8 -7 -7 -6 -4 -4 -3 -3 -4 -4 -4 -3 -2 -2 -2 -3 -3 -2 -2 -1 -1 -0 -0 -0 -0
9 8 7 7 8 8 8 7 8 8 9 8 8 7 7 6 6 5 4 4 4 3 -2 -6 -8 -8 -8 -7 -6 -5 -5 -4 -4 -4 -4 -4 -3 -3 -3 -3 -3 -2 -2 -2 -1 -0 -0 -0 0
7 7 6 7 7 8 7 7 7 8 8 8 7 7 6 6 5 5 4 4 3 3 -0 -5 -8 -9 -9 -8 -7 -6 -6 -5 -5 -5 -5 -5 -4 -4 -3 -3 -3 -2 -2 -2 -1 -1 -0 0 0
6 6 6 6 7 7 7 7 7 7 7 7 7 7 6 5 5 4 4 3 3 3 1 -3 -7 -9 -9 -8 -7 -6 -6 -6 -6 -6 -6 -6 -5 -5 -4 -4 -3 -2 -2 -2 -2 -1 -0 0 0
7 6 6 6 6 6 6 6 6 6 6 6 6 6 5 5 4 3 3 3 3 3 2 -2 -7 -9 -9 -8 -7 -6 -6 -6 -6 -7 -7 -6 -6 -5 -4 -4 -3 -3 -2 -2 -2 -1 -1 -0 0
7 6 5 5 5 5 5 5 5 5 6 5 5 4 4 3 3 3 3 2 2 2 1 -2 -6 -8 -8 -7 -7 -6 -6 -6 -6 -6 -7 -7 -6 -5 -5 -4 -3 -3 -2 -2 -2 -1 -1 -0 -0
6 5 5 5 5 4 4 4 4 5 4 3 2 2 2 2 2 2 2 2 1 1 0 -3 -6 -7 -7 -6 -6 -6 -6 -5 -5 -6 -6 -7 -6 -5 -5 -4 -3 -3 -2 -2 -2 -1 -1 -0 -0
5 5 5 5 4 4 4 3 3 4 4 2 2 2 2 2 2 1 1 0 0 0 -1 -4 -6 -7 -6 -6 -6 -6 -6 -5 -4 -5 -6 -6 -6 -5 -4 -4 -3 -2 -2 -2 -1 -1 -1 -0 -0
5 5 5 5 4 4 3 3 3 4 3 2 2 2 2 2 1 0 -1 -1 -1 -2 -3 -4 -6 -6 -6 -5 -6 -6 -6 -5 -4 -5 -5 -6 -5 -5 -4 -3 -3 -2 -1 -1 -1 -1 -1 -0 -0
4 4 4 4 3 3 3 3 3 3 3 2 2 2 2 2 1 0 -1 -2 -2 -3 -4 -5 -6 -6 -6 -5 -6 -6 -6 -5 -5 -4 -4 -5 -5 -4 -3 -3 -2 -1 -1 -1 -1 -1 -1 -1 -0
3 3 2 2 1 2 3 3 3 2 2 2 2 2 2 2 2 1 -1 -2 -3 -4 -5 -6 -6 -6 -6 -6 -6 -7 -7 -6 -5 -4 -4 -4 -3 -3 -2 -2 -1 -1 -1 -1 -1 -1 -1 -1 -0
2 2 2 1 1 2 3 3 2 1 1 1 2 2 2 2 2 1 0 -1 -3 -3 -4 -6 -7 -6 -6 -6 -6 -6 -6 -6 -5 -4 -3 -3 -2 -2 -2 -1 -1 -1 -1 -1 -1 -1 -1 -1 -0
2 2 1 1 1 1 2 3 2 1 0 1 1 2 3 3 3 2 1 -1 -2 -3 -4 -5 -6 -6 -6 -5 -5 -5 -5 -5 -5 -4 -3 -2 -2 -2 -2 -1 -1 -1 -1 -1 -1 -1 -1 -0 -0
2 1 1 1 1 1 1 2 1 1 0 1 1 2 2 3 3 2 1 -0 -1 -2 -3 -4 -5 -5 -5 -4 -3 -4 -4 -4 -4 -3 -3 -2 -2 -2 -2 -1 -1 -1 -1 -1 -1 -1 0 1 1
3 2 1 1 0 0 1 1 1 1 1 1 1 2 2 3 3 2 1 0 -1 -1 -2 -3 -4 -4 -3 -3 -3 -3 -3 -4 -3 -3 -3 -2 -2 -2 -1 -1 -0 -0 -0 -0 -0 0 1 1 1
4 3 2 1 0 0 1 1 1 0 0 1 1 2 2 3 3 2 2 1 -0 -1 -1 -2 -2 -3 -3 -2 -2 -2 -3 -3 -3 -3 -3 -3 -2 -1 -1 -0 -0 -0 -0 0 0 1 1 2 1